Terminal Aerodrome Forecast
Issued by NWS Denver/Boulder, CO

Home | Current Version | Previous Version | Text Only | Print | Product List | Glossary On
Versions: 1 2 3 4 5 6 7 8 9 10 11 12 13 14 15 16 17 18 19 20 21 22 23 24 25 26 27 28 29 30 31 32 33 34 35 36 37 38 39 40 41 42 43 44 45 46 47 48 49 50
000
FTUS45 KBOU 301640 AAB
TAFDEN
TAF AMD
KDEN 301640Z 3017/0118 28012KT P6SM FEW090 SCT200
     FM301800 01008KT P6SM FEW090 SCT200
     FM302000 30012KT P6SM FEW090 SCT120 BKN200
     FM010100 27008KT P6SM SCT080 BKN120
     FM010600 21008KT P6SM SCT120 BKN180
     FM011600 15007KT P6SM SCT090 BKN140=

USA.gov is the U.S. government's official web portal to all federal, state and local government web resources and services.